TimeEDT,TemperatureF,Dew PointF,Humidity,Sea Level PressureIn,VisibilityMPH,Wind Direction,Wind SpeedMPH,Gust SpeedMPH,PrecipitationIn,Events,Conditions,WindDirDegrees,DateUTC
12:51 AM,46.0,21.9,39,30.12,10.0,SSW,5.8,-,N/A,,Clear,200,2013-03-31 04:51:00
1:51 AM,44.1,23.0,43,30.12,10.0,SSW,4.6,-,N/A,,Clear,210,2013-03-31 05:51:00
2:51 AM,43.0,25.0,49,30.12,10.0,SSW,6.9,-,N/A,,Clear,210,2013-03-31 06:51:00
3:51 AM,43.0,27.0,53,30.11,10.0,Calm,Calm,-,N/A,,Partly Cloudy,0,2013-03-31 07:51:00
4:51 AM,42.1,27.0,55,30.11,10.0,Calm,Calm,-,N/A,,Scattered Clouds,0,2013-03-31 08:51:00
5:51 AM,39.9,28.0,63,30.11,10.0,Calm,Calm,-,N/A,,Mostly Cloudy,0,2013-03-31 09:51:00
6:51 AM,41.0,28.9,62,30.10,10.0,Calm,Calm,-,N/A,,Mostly Cloudy,0,2013-03-31 10:51:00
7:51 AM,41.0,30.9,67,30.10,10.0,Calm,Calm,-,N/A,,Mostly Cloudy,0,2013-03-31 11:51:00
8:51 AM,44.1,32.0,63,30.10,10.0,Calm,Calm,-,N/A,,Mostly Cloudy,0,2013-03-31 12:51:00
9:51 AM,48.9,32.0,52,30.09,10.0,South,4.6,-,N/A,,Mostly Cloudy,180,2013-03-31 13:51:00
10:51 AM,52.0,30.9,45,30.06,10.0,Variable,5.8,-,N/A,,Mostly Cloudy,0,2013-03-31 14:51:00
11:51 AM,51.1,35.1,54,30.04,10.0,SE,5.8,-,N/A,,Overcast,130,2013-03-31 15:51:00
12:51 PM,55.4,35.6,47,30.00,10.0,SSE,11.5,20.7,N/A,,Overcast,160,2013-03-31 16:51:00
1:51 PM,53.1,37.9,57,29.98,10.0,SSE,12.7,21.9,N/A,,Overcast,150,2013-03-31 17:51:00
2:51 PM,52.0,37.0,57,29.94,10.0,SE,9.2,17.3,0.00,Rain,Light Rain,140,2013-03-31 18:51:00
3:51 PM,51.1,37.0,59,29.91,10.0,SE,11.5,18.4,0.00,,Overcast,140,2013-03-31 19:51:00
4:51 PM,51.1,37.0,59,29.89,10.0,SE,13.8,20.7,0.00,Rain,Light Rain,140,2013-03-31 20:51:00
5:51 PM,48.0,41.0,77,29.86,10.0,SE,10.4,18.4,0.00,Rain,Light Rain,140,2013-03-31 21:51:00
6:51 PM,46.9,42.1,83,29.83,9.0,SE,8.1,-,0.01,Rain,Light Rain,140,2013-03-31 22:51:00
7:24 PM,46.4,42.8,87,29.79,10.0,SE,11.5,21.9,0.00,Rain,Light Rain,130,2013-03-31 23:24:00
7:51 PM,46.0,43.0,89,29.77,3.0,ESE,9.2,19.6,0.01,Rain,Light Rain,120,2013-03-31 23:51:00
8:09 PM,46.4,42.8,87,29.77,3.0,ESE,11.5,18.4,0.01,Rain,Light Rain,120,2013-04-01 00:09:00
8:48 PM,46.4,44.6,93,29.75,2.0,ESE,9.2,19.6,0.03,Rain,Light Rain,120,2013-04-01 00:48:00
8:51 PM,46.0,44.1,93,29.75,2.0,ESE,8.1,-,0.04,Rain,Light Rain,120,2013-04-01 00:51:00
9:51 PM,46.0,45.0,96,29.72,2.0,Variable,3.5,-,0.02,Rain,Light Rain,0,2013-04-01 01:51:00
10:37 PM,46.4,44.6,93,29.70,2.0,ESE,3.5,-,0.01,Rain,Light Rain,110,2013-04-01 02:37:00
10:51 PM,46.0,46.0,100,29.70,2.0,Calm,Calm,-,0.01,,Light Drizzle,0,2013-04-01 02:51:00
11:51 PM,46.9,45.0,93,29.69,2.0,West,5.8,-,0.00,,Overcast,270,2013-04-01 03:51:00
11:59 PM,46.4,44.6,93,29.68,3.0,West,4.6,-,N/A,,Overcast,270,2013-04-01 03:59:00